Time,TemperatureF,DewpointF,PressureIn,WindDirection,WindDirectionDegrees,WindSpeedMPH,WindSpeedGustMPH,Humidity,HourlyPrecipIn,Conditions,Clouds,dailyrainin,SoftwareType,DateUTC
2013-02-13 00:00:00,47.3,44.0,30.31,ENE,74,4.0,5.0,89,0.00,,,0.00,,2013-02-13 08:00:00,
2013-02-13 00:10:00,47.0,44.0,30.31,NE,49,3.0,4.0,89,0.00,,,0.00,,2013-02-13 08:10:00,
2013-02-13 00:20:00,46.8,44.0,30.31,NE,40,3.0,4.0,89,0.00,,,0.00,,2013-02-13 08:20:00,
2013-02-13 00:30:00,46.6,44.0,30.31,NE,46,4.0,4.0,89,0.00,,,0.00,,2013-02-13 08:30:00,
2013-02-13 00:40:00,46.8,44.0,30.31,NE,53,3.0,6.0,90,0.00,,,0.00,,2013-02-13 08:40:00,
2013-02-13 00:50:00,46.7,44.0,30.31,NNE,32,3.0,5.0,90,0.00,,,0.00,,2013-02-13 08:50:00,
2013-02-13 01:00:00,46.0,43.0,30.31,NNW,342,2.0,4.0,89,0.00,,,0.00,,2013-02-13 09:00:00,
2013-02-13 01:10:00,46.6,44.0,30.31,NNW,331,3.0,4.0,90,0.00,,,0.00,,2013-02-13 09:10:00,
2013-02-13 01:20:00,46.5,44.0,30.31,NW,304,1.0,3.0,90,0.00,,,0.00,,2013-02-13 09:20:00,
2013-02-13 01:30:00,46.5,43.0,30.31,NNW,338,2.0,3.0,89,0.00,,,0.00,,2013-02-13 09:30:00,
2013-02-13 01:40:00,45.9,43.0,30.31,NNW,337,0.0,1.0,89,0.00,,,0.00,,2013-02-13 09:40:00,
2013-02-13 01:50:00,45.5,42.0,30.31,NE,34,1.0,2.0,89,0.00,,,0.00,,2013-02-13 09:50:00,
2013-02-13 02:00:00,44.8,42.0,30.31,NE,34,0.0,1.0,89,0.00,,,0.00,,2013-02-13 10:00:00,
2013-02-13 02:10:00,44.4,42.0,30.31,NE,34,0.0,0.0,90,0.00,,,0.00,,2013-02-13 10:10:00,
2013-02-13 02:20:00,44.1,41.0,30.31,NE,34,0.0,3.0,90,0.00,,,0.00,,2013-02-13 10:20:00,
2013-02-13 02:30:00,44.0,41.0,30.30,NE,34,0.0,2.0,90,0.00,,,0.00,,2013-02-13 10:30:00,
2013-02-13 02:40:00,43.9,41.0,30.30,NE,34,0.0,1.0,90,0.00,,,0.00,,2013-02-13 10:40:00,
2013-02-13 02:50:00,43.9,41.0,30.30,NW,318,2.0,2.0,91,0.00,,,0.00,,2013-02-13 10:50:00,
2013-02-13 03:00:00,44.2,42.0,30.30,North,349,0.0,2.0,91,0.00,,,0.00,,2013-02-13 11:00:00,
2013-02-13 03:10:00,44.0,42.0,30.29,North,349,0.0,0.0,91,0.00,,,0.00,,2013-02-13 11:10:00,
2013-02-13 03:20:00,43.7,41.0,30.29,NE,40,3.0,3.0,91,0.00,,,0.00,,2013-02-13 11:20:00,
2013-02-13 03:30:00,43.5,41.0,30.29,NE,41,2.0,3.0,91,0.00,,,0.00,,2013-02-13 11:30:00,
2013-02-13 03:40:00,43.3,41.0,30.29,NNE,28,2.0,2.0,91,0.00,,,0.00,,2013-02-13 11:40:00,
2013-02-13 03:50:00,43.2,41.0,30.29,NE,37,2.0,3.0,92,0.00,,,0.00,,2013-02-13 11:50:00,
2013-02-13 04:00:00,43.2,41.0,30.29,NE,37,1.0,3.0,92,0.00,,,0.00,,2013-02-13 12:00:00,
2013-02-13 04:10:00,43.0,41.0,30.29,NE,36,0.0,2.0,92,0.00,,,0.00,,2013-02-13 12:10:00,
2013-02-13 04:20:00,43.0,41.0,30.28,NE,36,1.0,2.0,92,0.00,,,0.00,,2013-02-13 12:20:00,
2013-02-13 04:30:00,43.2,41.0,30.28,NE,36,0.0,2.0,92,0.00,,,0.00,,2013-02-13 12:30:00,
2013-02-13 04:40:00,43.0,41.0,30.28,NE,36,0.0,1.0,92,0.00,,,0.00,,2013-02-13 12:40:00,
2013-02-13 04:50:00,42.9,41.0,30.29,NE,36,0.0,0.0,92,0.00,,,0.00,,2013-02-13 12:50:00,
2013-02-13 05:00:00,43.1,41.0,30.29,NE,36,0.0,2.0,92,0.00,,,0.00,,2013-02-13 13:00:00,
2013-02-13 05:10:00,43.1,41.0,30.29,NE,36,2.0,2.0,92,0.00,,,0.00,,2013-02-13 13:10:00,
2013-02-13 05:20:00,43.2,41.0,30.28,ENE,58,2.0,3.0,92,0.00,,,0.00,,2013-02-13 13:20:00,
2013-02-13 05:30:00,43.3,41.0,30.28,NW,315,2.0,4.0,93,0.00,,,0.00,,2013-02-13 13:30:00,
2013-02-13 05:40:00,43.3,41.0,30.28,NE,38,2.0,3.0,92,0.00,,,0.00,,2013-02-13 13:40:00,
2013-02-13 05:50:00,43.5,42.0,30.28,NW,315,2.0,3.0,93,0.00,,,0.00,,2013-02-13 13:50:00,
2013-02-13 06:00:00,43.5,42.0,30.28,NW,311,1.0,3.0,93,0.00,,,0.00,,2013-02-13 14:00:00,
2013-02-13 06:10:00,43.2,41.0,30.28,NW,311,0.0,2.0,92,0.00,,,0.00,,2013-02-13 14:10:00,
2013-02-13 06:20:00,42.8,41.0,30.28,NE,53,2.0,2.0,92,0.00,,,0.00,,2013-02-13 14:20:00,
2013-02-13 06:30:00,42.7,41.0,30.28,ENE,59,2.0,3.0,92,0.00,,,0.00,,2013-02-13 14:30:00,
2013-02-13 06:40:00,42.3,40.0,30.28,NE,42,4.0,4.0,93,0.00,,,0.00,,2013-02-13 14:40:00,
2013-02-13 06:50:00,42.1,40.0,30.28,NE,53,3.0,4.0,92,0.00,,,0.00,,2013-02-13 14:50:00,
2013-02-13 07:00:00,42.4,41.0,30.28,NNE,28,3.0,4.0,93,0.00,,,0.00,,2013-02-13 15:00:00,
2013-02-13 07:10:00,42.5,41.0,30.29,NE,37,0.0,3.0,93,0.00,,,0.00,,2013-02-13 15:10:00,
2013-02-13 07:20:00,43.0,41.0,30.29,NE,37,2.0,2.0,93,0.00,,,0.00,,2013-02-13 15:20:00,
2013-02-13 07:30:00,44.0,42.0,30.29,NE,36,0.0,3.0,93,0.00,,,0.00,,2013-02-13 15:30:00,
2013-02-13 07:40:00,44.6,43.0,30.29,NE,36,0.0,1.0,93,0.00,,,0.00,,2013-02-13 15:40:00,
2013-02-13 07:50:00,45.3,44.0,30.29,North,349,2.0,2.0,94,0.00,,,0.00,,2013-02-13 15:50:00,
2013-02-13 08:00:00,46.4,45.0,30.30,NW,322,0.0,3.0,94,0.00,,,0.00,,2013-02-13 16:00:00,
2013-02-13 08:10:00,47.2,45.0,30.29,NW,304,4.0,5.0,93,0.00,,,0.00,,2013-02-13 16:10:00,
2013-02-13 08:20:00,47.5,46.0,30.30,West,281,1.0,5.0,93,0.00,,,0.00,,2013-02-13 16:20:00,
2013-02-13 08:30:00,48.2,46.0,30.30,WSW,238,4.0,4.0,93,0.00,,,0.00,,2013-02-13 16:30:00,
2013-02-13 08:40:00,48.7,46.0,30.30,West,281,0.0,5.0,92,0.00,,,0.00,,2013-02-13 16:40:00,
2013-02-13 08:50:00,49.0,47.0,30.30,West,269,0.0,4.0,92,0.00,,,0.00,,2013-02-13 16:50:00,
2013-02-13 09:00:00,49.0,47.0,30.30,West,269,0.0,4.0,92,0.00,,,0.00,,2013-02-13 17:00:00,
2013-02-13 09:10:00,49.5,47.0,30.30,West,260,3.0,4.0,91,0.00,,,0.00,,2013-02-13 17:10:00,
2013-02-13 09:20:00,49.8,47.0,30.29,West,259,0.0,3.0,91,0.00,,,0.00,,2013-02-13 17:20:00,
2013-02-13 09:30:00,50.5,48.0,30.29,SSW,213,3.0,3.0,91,0.00,,,0.00,,2013-02-13 17:30:00,
2013-02-13 09:40:00,50.3,47.0,30.29,SW,235,3.0,4.0,90,0.00,,,0.00,,2013-02-13 17:40:00,
2013-02-13 09:50:00,51.0,48.0,30.29,WSW,237,3.0,3.0,90,0.00,,,0.00,,2013-02-13 17:50:00,
2013-02-13 10:00:00,52.4,49.0,30.29,WSW,249,2.0,4.0,88,0.00,,,0.00,,2013-02-13 18:00:00,
2013-02-13 10:10:00,51.9,48.0,30.29,WSW,252,4.0,6.0,87,0.00,,,0.00,,2013-02-13 18:10:00,
2013-02-13 10:20:00,52.6,49.0,30.29,WSW,241,4.0,7.0,87,0.00,,,0.00,,2013-02-13 18:20:00,
2013-02-13 10:30:00,53.9,50.0,30.29,West,277,3.0,5.0,87,0.00,,,0.00,,2013-02-13 18:30:00,
2013-02-13 10:40:00,55.3,50.0,30.29,West,269,4.0,6.0,81,0.00,,,0.00,,2013-02-13 18:40:00,
2013-02-13 10:50:00,57.0,50.0,30.28,West,263,5.0,7.0,77,0.00,,,0.00,,2013-02-13 18:50:00,
2013-02-13 11:00:00,55.6,49.0,30.28,WSW,248,2.0,5.0,78,0.00,,,0.00,,2013-02-13 19:00:00,
2013-02-13 11:10:00,54.6,49.0,30.28,West,274,4.0,6.0,82,0.00,,,0.00,,2013-02-13 19:10:00,
2013-02-13 11:20:00,55.1,49.0,30.27,WNW,287,3.0,6.0,81,0.00,,,0.00,,2013-02-13 19:20:00,
2013-02-13 11:30:00,56.0,51.0,30.27,WNW,288,3.0,5.0,82,0.00,,,0.00,,2013-02-13 19:30:00,
2013-02-13 11:40:00,56.9,50.0,30.27,WSW,250,4.0,6.0,79,0.00,,,0.00,,2013-02-13 19:40:00,
2013-02-13 11:50:00,58.7,51.0,30.26,West,259,3.0,7.0,75,0.00,,,0.00,,2013-02-13 19:50:00,
2013-02-13 12:00:00,59.0,50.0,30.26,West,265,4.0,7.0,72,0.00,,,0.00,,2013-02-13 20:00:00,
2013-02-13 12:10:00,58.1,51.0,30.25,WNW,287,5.0,6.0,77,0.00,,,0.00,,2013-02-13 20:10:00,
2013-02-13 12:20:00,60.2,51.0,30.25,West,278,5.0,7.0,71,0.00,,,0.00,,2013-02-13 20:20:00,
2013-02-13 12:30:00,60.0,51.0,30.24,WNW,299,7.0,8.0,71,0.00,,,0.00,,2013-02-13 20:30:00,
2013-02-13 12:40:00,60.6,52.0,30.23,WSW,254,4.0,7.0,72,0.00,,,0.00,,2013-02-13 20:40:00,
2013-02-13 12:50:00,61.1,50.0,30.23,West,272,4.0,6.0,68,0.00,,,0.00,,2013-02-13 20:50:00,
2013-02-13 13:00:00,60.9,51.0,30.23,West,271,6.0,7.0,69,0.00,,,0.00,,2013-02-13 21:00:00,
2013-02-13 13:10:00,62.0,51.0,30.22,WSW,252,5.0,9.0,68,0.00,,,0.00,,2013-02-13 21:10:00,
2013-02-13 13:20:00,62.2,51.0,30.22,West,279,6.0,11.0,66,0.00,,,0.00,,2013-02-13 21:20:00,
2013-02-13 13:30:00,62.1,51.0,30.21,West,267,9.0,13.0,68,0.00,,,0.00,,2013-02-13 21:30:00,
2013-02-13 13:40:00,63.0,51.0,30.21,West,264,8.0,14.0,65,0.00,,,0.00,,2013-02-13 21:40:00,
2013-02-13 13:50:00,63.5,52.0,30.20,NW,307,11.0,16.0,65,0.00,,,0.00,,2013-02-13 21:50:00,
2013-02-13 14:00:00,64.1,52.0,30.19,West,279,9.0,14.0,64,0.00,,,0.00,,2013-02-13 22:00:00,
2013-02-13 14:10:00,64.3,51.0,30.19,NW,312,11.0,14.0,61,0.00,,,0.00,,2013-02-13 22:10:00,
2013-02-13 14:20:00,64.2,50.0,30.19,NW,306,11.0,14.0,59,0.00,,,0.00,,2013-02-13 22:20:00,
2013-02-13 14:30:00,63.4,50.0,30.19,West,259,9.0,12.0,61,0.00,,,0.00,,2013-02-13 22:30:00,
2013-02-13 14:40:00,63.6,48.0,30.18,WNW,294,14.0,18.0,56,0.00,,,0.00,,2013-02-13 22:40:00,
2013-02-13 14:50:00,63.1,48.0,30.18,NW,313,15.0,16.0,58,0.00,,,0.00,,2013-02-13 22:50:00,
2013-02-13 15:00:00,62.4,50.0,30.18,NNW,346,14.0,16.0,64,0.00,,,0.00,,2013-02-13 23:00:00,
2013-02-13 15:10:00,62.1,49.0,30.18,WNW,297,10.0,16.0,62,0.00,,,0.00,,2013-02-13 23:10:00,
2013-02-13 15:20:00,61.9,49.0,30.18,WNW,288,10.0,17.0,63,0.00,,,0.00,,2013-02-13 23:20:00,
2013-02-13 15:30:00,62.3,50.0,30.18,West,280,10.0,17.0,63,0.00,,,0.00,,2013-02-13 23:30:00,
2013-02-13 15:40:00,62.5,49.0,30.17,NW,305,13.0,15.0,62,0.00,,,0.00,,2013-02-13 23:40:00,
2013-02-13 15:50:00,62.9,49.0,30.17,WNW,296,13.0,15.0,61,0.00,,,0.00,,2013-02-13 23:50:00,
2013-02-13 16:00:00,63.2,49.0,30.17,West,275,7.0,12.0,59,0.00,,,0.00,,2013-02-14 00:00:00,
2013-02-13 16:10:00,63.4,48.0,30.17,WNW,290,6.0,13.0,58,0.00,,,0.00,,2013-02-14 00:10:00,
2013-02-13 16:20:00,63.0,48.0,30.17,WNW,296,7.0,13.0,58,0.00,,,0.00,,2013-02-14 00:20:00,
2013-02-13 16:30:00,62.9,47.0,30.17,WNW,294,10.0,11.0,57,0.00,,,0.00,,2013-02-14 00:30:00,
2013-02-13 16:40:00,62.4,47.0,30.17,WNW,294,3.0,12.0,57,0.00,,,0.00,,2013-02-14 00:40:00,
2013-02-13 16:50:00,62.3,47.0,30.17,NW,311,10.0,12.0,57,0.00,,,0.00,,2013-02-14 00:50:00,
2013-02-13 17:00:00,61.1,46.0,30.17,WNW,292,9.0,13.0,58,0.00,,,0.00,,2013-02-14 01:00:00,
2013-02-13 17:10:00,61.3,46.0,30.17,WNW,302,9.0,11.0,57,0.00,,,0.00,,2013-02-14 01:10:00,
2013-02-13 17:20:00,61.2,45.0,30.16,NW,309,8.0,9.0,55,0.00,,,0.00,,2013-02-14 01:20:00,
2013-02-13 17:30:00,60.9,44.0,30.17,NW,321,5.0,10.0,53,0.00,,,0.00,,2013-02-14 01:30:00,
2013-02-13 17:40:00,59.6,43.0,30.17,WNW,284,3.0,5.0,55,0.00,,,0.00,,2013-02-14 01:40:00,
2013-02-13 17:50:00,57.7,43.0,30.17,NW,311,7.0,8.0,57,0.00,,,0.00,,2013-02-14 01:50:00,
2013-02-13 18:00:00,56.7,43.0,30.17,NW,315,6.0,8.0,60,0.00,,,0.00,,2013-02-14 02:00:00,
2013-02-13 18:10:00,56.6,42.0,30.17,WNW,294,5.0,7.0,59,0.00,,,0.00,,2013-02-14 02:10:00,
2013-02-13 18:20:00,56.7,42.0,30.17,NW,319,4.0,5.0,57,0.00,,,0.00,,2013-02-14 02:20:00,
2013-02-13 18:30:00,56.1,41.0,30.17,NNE,29,2.0,5.0,57,0.00,,,0.00,,2013-02-14 02:30:00,
2013-02-13 18:40:00,55.3,42.0,30.17,NE,46,3.0,5.0,60,0.00,,,0.00,,2013-02-14 02:40:00,
2013-02-13 18:50:00,55.1,41.0,30.18,NE,40,4.0,5.0,59,0.00,,,0.00,,2013-02-14 02:50:00,
2013-02-13 19:00:00,54.6,41.0,30.17,NE,35,5.0,5.0,60,0.00,,,0.00,,2013-02-14 03:00:00,
2013-02-13 19:10:00,54.3,42.0,30.18,NE,53,0.0,4.0,62,0.00,,,0.00,,2013-02-14 03:10:00,
2013-02-13 19:20:00,53.8,42.0,30.18,NE,35,3.0,4.0,63,0.00,,,0.00,,2013-02-14 03:20:00,
2013-02-13 19:30:00,52.9,42.0,30.18,NE,51,2.0,4.0,66,0.00,,,0.00,,2013-02-14 03:30:00,
2013-02-13 19:40:00,52.6,42.0,30.18,NE,44,5.0,5.0,68,0.00,,,0.00,,2013-02-14 03:40:00,
2013-02-13 19:50:00,52.8,43.0,30.19,NNE,32,4.0,5.0,68,0.00,,,0.00,,2013-02-14 03:50:00,
2013-02-13 20:00:00,52.6,42.0,30.19,NNE,31,0.0,3.0,68,0.00,,,0.00,,2013-02-14 04:00:00,
2013-02-13 20:10:00,52.2,43.0,30.19,NNE,32,4.0,4.0,70,0.00,,,0.00,,2013-02-14 04:10:00,
2013-02-13 20:20:00,52.8,44.0,30.19,NE,38,6.0,9.0,73,0.00,,,0.00,,2013-02-14 04:20:00,
2013-02-13 20:30:00,52.6,45.0,30.19,NE,36,6.0,7.0,74,0.00,,,0.00,,2013-02-14 04:30:00,
2013-02-13 20:40:00,52.7,45.0,30.19,NE,50,8.0,8.0,75,0.00,,,0.00,,2013-02-14 04:40:00,
2013-02-13 20:50:00,52.7,45.0,30.19,ENE,57,4.0,8.0,75,0.00,,,0.00,,2013-02-14 04:50:00,
2013-02-13 21:10:00,52.1,45.0,30.19,NE,48,5.0,6.0,76,0.00,,,0.00,,2013-02-14 05:10:00,
2013-02-13 21:20:00,51.2,44.0,30.20,NNW,345,1.0,5.0,76,0.00,,,0.00,,2013-02-14 05:20:00,
2013-02-13 21:30:00,50.6,44.0,30.19,NW,319,3.0,6.0,77,0.00,,,0.00,,2013-02-14 05:30:00,
2013-02-13 21:40:00,51.4,44.0,30.20,WNW,302,6.0,6.0,77,0.00,,,0.00,,2013-02-14 05:40:00,
2013-02-13 21:50:00,51.4,44.0,30.20,NW,313,2.0,5.0,77,0.00,,,0.00,,2013-02-14 05:50:00,
2013-02-13 22:00:00,51.1,44.0,30.20,NW,324,2.0,4.0,78,0.00,,,0.00,,2013-02-14 06:00:00,
2013-02-13 22:10:00,50.9,44.0,30.20,NNW,330,1.0,3.0,78,0.00,,,0.00,,2013-02-14 06:10:00,
2013-02-13 22:20:00,50.6,44.0,30.20,NNW,330,0.0,2.0,77,0.00,,,0.00,,2013-02-14 06:20:00,
2013-02-13 22:30:00,50.2,43.0,30.20,NNW,330,0.0,0.0,77,0.00,,,0.00,,2013-02-14 06:30:00,
2013-02-13 22:40:00,49.5,43.0,30.20,NNW,330,0.0,0.0,77,0.00,,,0.00,,2013-02-14 06:40:00,
2013-02-13 22:50:00,49.0,42.0,30.20,NNW,330,0.0,0.0,78,0.00,,,0.00,,2013-02-14 06:50:00,
2013-02-13 23:00:00,48.9,42.0,30.20,NNW,330,0.0,0.0,78,0.00,,,0.00,,2013-02-14 07:00:00,
2013-02-13 23:10:00,48.5,42.0,30.20,NNE,19,1.0,3.0,78,0.00,,,0.00,,2013-02-14 07:10:00,
2013-02-13 23:20:00,48.6,42.0,30.20,NE,53,2.0,4.0,79,0.00,,,0.00,,2013-02-14 07:20:00,
2013-02-13 23:30:00,48.8,43.0,30.19,NE,51,1.0,4.0,80,0.00,,,0.00,,2013-02-14 07:30:00,
2013-02-13 23:40:00,49.2,43.0,30.20,East,98,1.0,6.0,79,0.00,,,0.00,,2013-02-14 07:40:00,
2013-02-13 23:50:00,49.2,43.0,30.20,ENE,65,3.0,4.0,80,0.00,,,0.00,,2013-02-14 07:50:00,